(°F)
45°
45°
45°
45°
46°
46°
47°
(°F)
40°
40°
41°
41°
41°
41°
43°
SE
SE
ESE
E
ESE
SSE
SSE
(mph)
3-7
4-7
3-7
4-5
4-7
6-9
4-8
(in)
0
0
0
0
0
0.1
0.1
(%)
25
63
70
91
70
99
99

Sun elevation

/ -15.5°
sun-icon
UV 3
04:53
20:12
Waning crescent (313°)
04:00
15:21

METAR for 52.17°N 20.97°E (EPWA)

Time Conditions Temperature/
Dewpoint
Wind Visibility Weather Clouds Pressure Change Raw
VFR 44.6°F / 39.2°F 130º 5kt >10km Light Rain Broken Clouds 4800ft 1006 No Significant change EPWA 070030Z 13005KT 9999 -RA BKN048 07/04 Q1006 NOSIG
VFR 44.6°F / 41°F variable 2kt >10km - Broken Clouds 4800ft 1006 No Significant change EPWA 070000Z VRB02KT 9999 BKN048 07/05 Q1006 NOSIG
VFR 44.6°F / 39.2°F variable 2kt >10km - Scattered Clouds 4700ft 1006 No Significant change EPWA 062330Z VRB02KT 9999 SCT047 07/04 Q1006 NOSIG
VFR 44.6°F / 39.2°F 120º 2kt >10km Light Showers Rain Few Clouds 5000ft 1006 No Significant change EPWA 062300Z 12002KT 9999 -SHRA FEW050CB 07/04 Q1006 NOSIG
VFR 44.6°F / 41°F 120º 2kt >10km - Few Clouds 5500ft 1007 No Significant change EPWA 062230Z 12002KT 9999 FEW055CB 07/05 Q1007 NOSIG
VFR 44.6°F / 39.2°F 200º 1kt >10km Light Showers Rain Few Clouds 5500ft 1007 No Significant change EPWA 062200Z 20001KT 9999 -SHRA FEW055CB 07/04 Q1007 NOSIG
VFR 44.6°F / 37.4°F variable 2kt >10km - Clouds and Visibility OK 1007 No Significant change EPWA 062130Z VRB02KT CAVOK 07/03 Q1007 NOSIG
VFR 46.4°F / 35.6°F 250º 2kt >10km - Clouds and Visibility OK 1007 No Significant change EPWA 062100Z 25002KT CAVOK 08/02 Q1007 NOSIG
VFR 46.4°F / 35.6°F variable 2kt >10km - Clouds and Visibility OK 1007 No Significant change EPWA 062030Z VRB02KT CAVOK 08/02 Q1007 NOSIG
VFR 46.4°F / 35.6°F variable 2kt >10km - Clouds and Visibility OK 1007 No Significant change EPWA 062000Z VRB02KT CAVOK 08/02 Q1007 NOSIG
VFR 48.2°F / 35.6°F 230º variable 200º to 270º 4kt >10km - Clouds and Visibility OK 1007 No Significant change EPWA 061930Z 23004KT 200V270 CAVOK 09/02 Q1007 NOSIG
VFR 46.4°F / 33.8°F 200º 5kt >10km - Clouds and Visibility OK 1007 No Significant change EPWA 061900Z 20005KT CAVOK 08/01 Q1007 NOSIG
VFR 48.2°F / 35.6°F 200º 5kt >10km - Clouds and Visibility OK 1007 No Significant change EPWA 061830Z 20005KT CAVOK 09/02 Q1007 NOSIG
VFR 48.2°F / 33.8°F 240º 3kt >10km - Clouds and Visibility OK 1007 No Significant change EPWA 061800Z 24003KT CAVOK 09/01 Q1007 NOSIG
VFR 48.2°F / 35.6°F 270º 6kt >10km - Clouds and Visibility OK 1007 No Significant change EPWA 061730Z 27006KT CAVOK 09/02 Q1007 NOSIG
VFR 48.2°F / 35.6°F 290º 12kt >10km - Few Clouds 5000ft 1007 No Significant change EPWA 061700Z 29012KT 9999 FEW050CB 09/02 Q1007 NOSIG
VFR 50°F / 30.2°F 260º variable 210º to 300º 16kt Gust 26kt >10km - Scattered Clouds 5000ft 1007 No Significant change EPWA 061630Z 26016G26KT 210V300 9999 SCT050CB 10/M01 Q1007 NOSIG
VFR 53.6°F / 30.2°F 240º 8kt >10km - Few Clouds 5000ft 1007 No Significant change EPWA 061600Z 24008KT 9999 FEW050CB 12/M01 Q1007 NOSIG
VFR 55.4°F / 30.2°F 240º variable 210º to 270º 10kt >10km - Clouds and Visibility OK 1007 No Significant change EPWA 061530Z 24010KT 210V270 CAVOK 13/M01 Q1007 NOSIG
VFR 53.6°F / 30.2°F 260º 15kt >10km - Clouds and Visibility OK 1007 No Significant change EPWA 061500Z 26015KT CAVOK 12/M01 Q1007 NOSIG
VFR 53.6°F / 32°F 240º variable 210º to 270º 9kt >10km - Clouds and Visibility OK 1007 No Significant change EPWA 061430Z 24009KT 210V270 CAVOK 12/M00 Q1007 NOSIG
VFR 53.6°F / 33.8°F 230º variable 170º to 260º 10kt >10km - Few Clouds 5000ft 1007 No Significant change EPWA 061400Z 23010KT 170V260 9999 FEW050CB 12/01 Q1007 NOSIG
VFR 51.8°F / 30.2°F 260º variable 220º to 290º 16kt >10km - Scattered Clouds 5000ft 1007 No Significant change EPWA 061330Z 26016KT 220V290 9999 SCT050CB 11/M01 Q1007 NOSIG
VFR 53.6°F / 28.4°F 230º variable 200º to 270º 14kt Gust 26kt >10km - Few Clouds 6000ft 1007 No Significant change EPWA 061300Z 23014G26KT 200V270 9999 FEW060CB 12/M02 Q1007 NOSIG

VFR

44.6°F / 39.2°F

[More]
Wind 130º 5kt
Visibility >10km
Weather Light Rain
Clouds Broken Clouds 4800ft
Pressure 1006
Change No Significant change
Raw EPWA 070030Z 13005KT 9999 -RA BKN048 07/04 Q1006 NOSIG

VFR

44.6°F / 41°F

[More]
Wind variable 2kt
Visibility >10km
Weather -
Clouds Broken Clouds 4800ft
Pressure 1006
Change No Significant change
Raw EPWA 070000Z VRB02KT 9999 BKN048 07/05 Q1006 NOSIG

VFR

44.6°F / 39.2°F

[More]
Wind variable 2kt
Visibility >10km
Weather -
Clouds Scattered Clouds 4700ft
Pressure 1006
Change No Significant change
Raw EPWA 062330Z VRB02KT 9999 SCT047 07/04 Q1006 NOSIG

VFR

44.6°F / 39.2°F

[More]
Wind 120º 2kt
Visibility >10km
Weather Light Showers Rain
Clouds Few Clouds 5000ft
Pressure 1006
Change No Significant change
Raw EPWA 062300Z 12002KT 9999 -SHRA FEW050CB 07/04 Q1006 NOSIG

VFR

44.6°F / 41°F

[More]
Wind 120º 2kt
Visibility >10km
Weather -
Clouds Few Clouds 5500ft
Pressure 1007
Change No Significant change
Raw EPWA 062230Z 12002KT 9999 FEW055CB 07/05 Q1007 NOSIG

VFR

44.6°F / 39.2°F

[More]
Wind 200º 1kt
Visibility >10km
Weather Light Showers Rain
Clouds Few Clouds 5500ft
Pressure 1007
Change No Significant change
Raw EPWA 062200Z 20001KT 9999 -SHRA FEW055CB 07/04 Q1007 NOSIG

VFR

44.6°F / 37.4°F

[More]
Wind variable 2kt
Visibility >10km
Weather -
Clouds Clouds and Visibility OK
Pressure 1007
Change No Significant change
Raw EPWA 062130Z VRB02KT CAVOK 07/03 Q1007 NOSIG

VFR

46.4°F / 35.6°F

[More]
Wind 250º 2kt
Visibility >10km
Weather -
Clouds Clouds and Visibility OK
Pressure 1007
Change No Significant change
Raw EPWA 062100Z 25002KT CAVOK 08/02 Q1007 NOSIG

VFR

46.4°F / 35.6°F

[More]
Wind variable 2kt
Visibility >10km
Weather -
Clouds Clouds and Visibility OK
Pressure 1007
Change No Significant change
Raw EPWA 062030Z VRB02KT CAVOK 08/02 Q1007 NOSIG

VFR

46.4°F / 35.6°F

[More]
Wind variable 2kt
Visibility >10km
Weather -
Clouds Clouds and Visibility OK
Pressure 1007
Change No Significant change
Raw EPWA 062000Z VRB02KT CAVOK 08/02 Q1007 NOSIG

VFR

48.2°F / 35.6°F

[More]
Wind 230º variable 200º to 270º 4kt
Visibility >10km
Weather -
Clouds Clouds and Visibility OK
Pressure 1007
Change No Significant change
Raw EPWA 061930Z 23004KT 200V270 CAVOK 09/02 Q1007 NOSIG

VFR

46.4°F / 33.8°F

[More]
Wind 200º 5kt
Visibility >10km
Weather -
Clouds Clouds and Visibility OK
Pressure 1007
Change No Significant change
Raw EPWA 061900Z 20005KT CAVOK 08/01 Q1007 NOSIG

VFR

48.2°F / 35.6°F

[More]
Wind 200º 5kt
Visibility >10km
Weather -
Clouds Clouds and Visibility OK
Pressure 1007
Change No Significant change
Raw EPWA 061830Z 20005KT CAVOK 09/02 Q1007 NOSIG

VFR

48.2°F / 33.8°F

[More]
Wind 240º 3kt
Visibility >10km
Weather -
Clouds Clouds and Visibility OK
Pressure 1007
Change No Significant change
Raw EPWA 061800Z 24003KT CAVOK 09/01 Q1007 NOSIG

VFR

48.2°F / 35.6°F

[More]
Wind 270º 6kt
Visibility >10km
Weather -
Clouds Clouds and Visibility OK
Pressure 1007
Change No Significant change
Raw EPWA 061730Z 27006KT CAVOK 09/02 Q1007 NOSIG

VFR

48.2°F / 35.6°F

[More]
Wind 290º 12kt
Visibility >10km
Weather -
Clouds Few Clouds 5000ft
Pressure 1007
Change No Significant change
Raw EPWA 061700Z 29012KT 9999 FEW050CB 09/02 Q1007 NOSIG

VFR

50°F / 30.2°F

[More]
Wind 260º variable 210º to 300º 16kt Gust 26kt
Visibility >10km
Weather -
Clouds Scattered Clouds 5000ft
Pressure 1007
Change No Significant change
Raw EPWA 061630Z 26016G26KT 210V300 9999 SCT050CB 10/M01 Q1007 NOSIG

VFR

53.6°F / 30.2°F

[More]
Wind 240º 8kt
Visibility >10km
Weather -
Clouds Few Clouds 5000ft
Pressure 1007
Change No Significant change
Raw EPWA 061600Z 24008KT 9999 FEW050CB 12/M01 Q1007 NOSIG

VFR

55.4°F / 30.2°F

[More]
Wind 240º variable 210º to 270º 10kt
Visibility >10km
Weather -
Clouds Clouds and Visibility OK
Pressure 1007
Change No Significant change
Raw EPWA 061530Z 24010KT 210V270 CAVOK 13/M01 Q1007 NOSIG

VFR

53.6°F / 30.2°F

[More]
Wind 260º 15kt
Visibility >10km
Weather -
Clouds Clouds and Visibility OK
Pressure 1007
Change No Significant change
Raw EPWA 061500Z 26015KT CAVOK 12/M01 Q1007 NOSIG

VFR

53.6°F / 32°F

[More]
Wind 240º variable 210º to 270º 9kt
Visibility >10km
Weather -
Clouds Clouds and Visibility OK
Pressure 1007
Change No Significant change
Raw EPWA 061430Z 24009KT 210V270 CAVOK 12/M00 Q1007 NOSIG

VFR

53.6°F / 33.8°F

[More]
Wind 230º variable 170º to 260º 10kt
Visibility >10km
Weather -
Clouds Few Clouds 5000ft
Pressure 1007
Change No Significant change
Raw EPWA 061400Z 23010KT 170V260 9999 FEW050CB 12/01 Q1007 NOSIG

VFR

51.8°F / 30.2°F

[More]
Wind 260º variable 220º to 290º 16kt
Visibility >10km
Weather -
Clouds Scattered Clouds 5000ft
Pressure 1007
Change No Significant change
Raw EPWA 061330Z 26016KT 220V290 9999 SCT050CB 11/M01 Q1007 NOSIG

VFR

53.6°F / 28.4°F

[More]
Wind 230º variable 200º to 270º 14kt Gust 26kt
Visibility >10km
Weather -
Clouds Few Clouds 6000ft
Pressure 1007
Change No Significant change
Raw EPWA 061300Z 23014G26KT 200V270 9999 FEW060CB 12/M02 Q1007 NOSIG

TAF for 52.17°N 20.97°E (EPWA)

From till


From till Wind variable 2kt. Visibility 10km or more. Nil Significant Cloud.
Becoming from till Wind variable 2kt. Visibility 10km or more. Light Rain . Scattered Clouds 700ft. Broken Clouds 1200ft.
Temporarly from till Visibility 3000m. Rain Mist . Broken Clouds 600ft.
Becoming from till Wind 290º 10kt. Visibility 10km or more. Light Rain . Broken Clouds 1600ft.
Temporarly from till Light Showers Rain . Broken Clouds 700ft. Broken Clouds 1200ft.
Becoming from till Wind 290º 10kt. Visibility 10km or more. Light Rain . Broken Clouds 1000ft.
Temporarly from till Visibility 3000m. Rain Mist . Broken Clouds 600ft.
With 40% probability, Temporarly from till Visibility 2000m. Rain Snow Mist . Broken Clouds 400ft.

Raw: TAF EPWA 062330Z 0700/0724 VRB02KT CAVOK BECMG 0702/0705 -RA SCT007 BKN012 TEMPO 0704/0711 3000 RA BR BKN006 BECMG 0709/0711 29010KT BKN016 TEMPO 0711/0717 -SHRA BKN007 BKN012CB BECMG 0715/0717 -RA BKN010 TEMPO 0717/0724 3000 RA BR BKN006 PROB40 TEMPO 0718/0724 2000 RASN BR BKN004

Current satellite and rain images for 52.17°N 20.97°E

  • Precipitation:
  • <1 mm
  • 1-2 mm
  • 2-5 mm
  • >5 mm

The location marker is placed on 52.17°N 20.97°E. [More]

The real-time satellite image combines visible light during daytime with infrared radiation during nighttime. At night, the image is not dark as infrared radiation can detect temperature differences. Unfortunately, low clouds and fog are difficult to distinguish from ground temperatures and thus can be almost invisible during the night. Meteosat satellite images for Europe are updated in real-time every 5 minutes. GOES-16/GOES-17 (North & South America) and Himawari (Asia) images update every 10 minutes.

Precipitation is estimated from radar and satellites. At night precipitation estimates from satellites are less accurate than during daytime. Orange crosses mark places where lightning was detected (over Europe).

Copyright 2021 EUMETSAT / meteoblue. Lightning data provided by nowcast.